Wind_Speed
24 24 25 25 26 26 27 27 27 26 25 24 23 24 23 23 22 23 23 23 23 23 23 24 23 23 24 24 24 23 23 23 23 23 24 25 25 25 24 24 24 24 25 25
26 25 25 26 27 26 26 27 28 28 28 27 27 25 24 24 24 24 25 26 26 25 25 25 25 24 24 25 25 25 25 25 25 25 26 27 27 26 25 25 25 26 26 27
27 26 26 27 27 27 27 28 29 29 29 29 29 27 27 27 26 27 27 28 28 28 27 27 27 26 26 26 26 26 26 26 26 27 27 28 28 26 26 26 27 27 28 28
28 27 28 26 27 27 28 29 30 31 30 30 30 29 29 28 28 28 28 28 30 30 29 29 29 29 28 27 28 28 27 27 27 27 28 28 28 28 28 28 29 29 29 29
30 30 30 29 28 28 29 30 30 31 31 31 31 31 29 28 28 28 28 29 30 30 30 30 29 28 28 28 28 28 28 29 29 29 29 29 30 30 29 30 31 31 30 30
33 32 32 30 29 28 29 30 30 31 31 30 30 30 29 28 28 29 29 29 29 29 29 29 30 30 30 29 29 29 29 30 30 30 31 31 32 32 32 32 32 31 31 30
33 33 32 30 30 29 29 28 28 29 29 29 29 30 30 30 29 29 30 30 30 30 31 31 31 31 32 30 31 31 30 31 32 32 32 33 33 34 33 33 32 32 31 30
33 34 33 31 30 30 30 29 29 29 30 30 31 31 31 31 30 30 30 31 32 32 32 32 32 32 32 31 32 32 32 32 32 32 33 33 33 34 34 33 33 32 32 31
33 34 34 32 32 32 31 31 31 31 31 31 31 31 32 32 32 31 30 31 32 33 33 34 34 33 32 32 32 32 32 32 32 32 33 33 33 34 34 34 34 34 33 32
32 33 34 34 34 34 34 33 31 31 31 31 31 31 31 31 31 31 31 32 33 33 33 33 33 32 32 33 33 32 31 32 33 33 33 33 34 34 34 34 34 34 34 33
32 32 33 34 34 33 33 33 33 31 30 30 31 31 31 32 32 31 31 32 32 32 32 32 32 32 33 33 34 33 33 34 34 34 34 34 34 34 34 34 34 34 34 34
32 33 33 33 33 33 33 32 32 32 31 31 31 31 30 30 31 32 31 31 31 32 31 31 32 33 33 34 34 34 35 35 35 35 34 34 34 33 34 35 35 35 35 35
32 33 34 33 33 33 34 33 32 31 31 30 30 30 30 29 30 30 30 31 32 32 33 33 33 34 34 35 35 36 35 35 35 35 34 34 34 34 34 35 35 35 36 36
33 33 33 33 33 33 33 33 33 32 31 30 30 29 29 29 29 29 30 31 32 33 33 33 34 35 35 36 35 35 35 36 36 35 35 35 36 36 36 36 35 35 36 36
33 34 33 33 32 32 32 32 32 32 31 30 30 29 30 30 30 30 30 30 31 32 33 33 34 35 35 36 36 36 36 35 36 36 36 36 37 37 37 36 36 36 35 35
33 34 34 33 32 32 31 31 31 31 30 30 30 31 31 31 31 31 31 31 31 32 32 33 33 34 34 35 35 35 35 36 36 37 37 37 37 36 36 36 35 35 35 34
33 33 33 33 32 32 31 31 31 31 30 30 31 31 32 32 32 32 32 32 33 33 33 33 33 33 33 33 33 34 35 36 37 37 37 37 37 36 36 35 35 34 34 33
33 33 33 32 32 32 32 32 32 32 31 31 31 31 31 32 32 32 32 33 33 33 33 33 33 33 33 33 33 34 35 35 35 36 36 37 36 35 34 34 34 34 33 33
33 33 33 32 33 33 33 33 33 32 32 31 31 32 32 32 31 32 32 32 33 33 33 33 33 33 34 34 34 34 35 35 35 35 35 34 34 34 33 33 33 33 33 33
31 31 32 32 32 32 32 31 31 31 31 31 31 32 32 31 32 32 32 33 33 32 32 32 32 32 33 34 34 34 34 33 33 33 33 33 32 32 32 32 32 31 31 31
28 29 30 30 30 30 30 30 30 30 30 30 30 31 31 32 32 32 32 32 31 32 32 32 32 33 33 33 33 33 33 32 32 32 32 32 31 31 31 30 30 29 29 30
25 26 27 27 28 28 29 29 29 29 29 29 30 30 31 31 31 32 32 31 31 31 31 32 32 32 32 32 33 33 33 32 32 31 31 31 30 30 30 30 29 28 28 28
21 22 23 24 25 26 26 27 28 28 29 29 29 29 30 30 30 30 31 31 31 31 31 31 30 30 31 32 32 32 31 31 30 29 29 29 30 30 29 29 28 28 28 28
20 20 21 21 23 24 25 25 26 26 27 27 28 28 28 29 29 30 29 29 30 29 29 29 29 29 31 31 31 30 30 30 29 28 28 28 28 28 28 27 27 26 26 27
18 18 18 19 20 21 22 23 24 24 25 25 25 26 27 27 28 28 29 29 28 28 28 28 28 29 30 30 29 28 28 28 27 27 27 27 27 26 25 25 25 24 24 24
16 17 18 19 19 19 20 21 21 22 23 23 23 24 25 26 26 27 27 26 26 26 26 27 27 28 28 27 26 26 26 25 25 25 25 25 25 24 24 23 23 22 22 22
13 14 15 16 16 17 18 19 20 20 21 21 22 23 24 25 25 25 25 26 26 26 26 26 27 26 27 26 24 24 24 23 24 24 24 24 24 23 22 22 21 21 21 21
Wind_Direction
247 246 247 249 251 253 256 259 262 265 268 271 274 276 276 276 276 278 281 282 285 288 288 288 290 293 297 299 299 298 299 301 303 300 300 300 298 297 297 294 294 294 294 292
250 251 252 251 252 254 257 260 263 266 268 271 274 274 274 274 277 280 281 281 282 283 285 288 290 291 293 295 296 297 298 300 302 302 302 300 298 294 294 294 294 294 293 291
253 253 253 252 253 255 257 261 263 266 269 270 272 273 273 274 276 278 279 279 280 282 284 287 288 289 290 292 293 294 296 298 299 302 301 300 297 295 294 293 294 294 293 290
253 254 255 256 255 256 258 260 263 266 267 269 271 273 274 275 276 277 279 279 281 284 285 289 290 288 290 290 291 291 291 294 298 300 300 301 299 296 296 294 295 293 292 291
254 256 258 258 259 261 262 263 264 266 268 270 271 273 274 275 274 275 278 280 283 285 287 288 289 289 290 291 290 289 290 293 294 296 297 299 300 300 299 296 296 294 292 291
256 259 261 263 264 265 265 266 267 269 270 271 272 273 272 271 272 274 276 279 282 285 287 288 289 287 288 289 290 290 290 290 292 293 295 297 297 298 297 296 295 293 294 292
256 260 263 265 267 268 270 270 270 272 272 272 273 273 273 273 275 276 277 280 283 284 286 288 288 287 289 289 289 288 289 290 290 291 293 295 295 296 296 295 294 293 293 293
254 258 262 266 268 270 272 272 273 273 274 275 274 275 274 276 277 277 278 280 283 284 285 287 287 286 288 289 289 288 288 290 291 292 292 293 294 295 295 294 293 293 293 293
254 258 262 264 267 270 271 274 275 276 276 277 276 275 276 276 277 279 280 282 283 285 285 285 286 288 287 286 287 286 287 289 291 293 293 293 294 295 294 293 292 291 292 292
255 257 260 263 266 268 270 273 274 276 277 276 277 276 276 276 277 278 280 281 282 283 284 284 285 288 287 288 288 286 287 289 291 293 292 293 293 293 293 291 291 290 290 290
256 259 262 263 266 268 270 271 274 275 277 277 276 277 277 276 276 278 280 282 282 283 284 285 285 287 288 289 289 289 290 291 291 291 291 292 292 292 292 292 291 291 289 289
258 259 261 265 267 268 269 272 273 275 276 276 276 277 277 278 278 279 281 283 283 284 285 285 285 286 287 288 288 289 289 290 290 291 291 291 292 292 292 291 291 291 291 290
259 260 262 265 267 268 269 270 272 273 275 277 277 278 278 278 279 281 282 283 283 283 284 284 285 285 286 288 289 289 289 290 290 290 289 289 290 290 291 291 291 290 291 290
260 261 262 264 266 268 269 269 270 272 273 274 276 276 277 278 280 282 283 283 283 283 284 284 285 285 286 288 288 289 289 290 290 290 288 288 288 289 290 291 291 290 290 289
259 260 262 264 266 266 268 270 271 270 271 272 274 275 277 278 279 282 283 284 285 285 285 284 285 286 287 288 288 289 289 290 290 289 289 289 288 289 290 290 290 290 289 289
258 259 260 262 264 266 268 270 270 270 270 271 273 276 277 276 278 280 283 286 289 289 288 288 287 287 288 289 289 290 290 291 291 290 290 290 289 289 290 291 291 290 289 289
258 259 260 262 263 265 267 269 270 270 272 274 274 276 277 278 280 282 284 286 289 290 290 289 289 289 289 290 291 293 293 293 293 292 291 291 290 289 290 290 290 290 289 289
259 260 260 261 262 263 264 266 268 270 272 275 276 276 279 282 283 284 285 287 288 290 290 289 290 290 291 292 293 294 294 294 294 293 292 292 290 289 289 290 290 289 288 289
258 260 259 260 262 263 265 266 267 268 270 272 274 276 278 281 283 285 286 287 289 291 291 290 290 291 292 292 294 295 294 293 293 294 294 293 292 291 290 290 291 290 289 288
257 259 260 261 262 263 264 265 268 270 271 272 273 276 278 281 284 286 287 288 289 291 291 291 291 292 292 293 294 295 295 295 294 294 295 296 295 294 293 292 291 290 289 289
259 259 260 261 262 262 263 264 266 268 271 273 275 277 279 281 283 284 286 287 289 290 291 292 292 293 294 295 295 295 295 295 295 295 295 295 295 295 295 294 292 291 289 289
263 263 263 262 263 264 264 264 266 268 270 273 276 279 281 282 283 284 285 287 288 289 290 291 292 293 293 295 295 296 296 296 295 294 293 293 294 294 294 294 293 290 289 289
265 266 266 265 266 267 267 267 268 270 273 275 277 280 282 284 284 285 286 287 288 289 290 291 293 294 294 295 296 297 298 298 297 295 294 294 294 294 295 294 292 290 289 289
272 271 269 268 267 270 271 270 270 272 275 277 279 281 283 285 286 287 288 287 287 289 291 292 294 295 296 296 296 296 297 298 298 296 295 295 296 297 297 295 294 291 288 287
275 274 272 273 273 274 275 274 272 273 276 278 280 283 285 287 288 288 289 289 288 290 291 293 295 296 298 298 298 297 296 297 298 298 298 297 298 297 296 294 293 292 292 290
279 277 275 275 275 277 279 278 275 275 277 279 282 286 288 289 289 290 290 289 290 292 293 294 296 298 299 299 299 298 298 299 299 299 299 300 300 298 296 295 295 294 293 292
288 286 282 279 279 282 283 282 279 279 280 283 286 289 291 292 293 294 294 293 294 295 297 298 300 301 302 302 300 300 299 298 299 300 299 299 301 301 299 296 295 295 295 293
Height
5857 5859 5860 5862 5863 5864 5865 5866 5867 5868 5868 5869 5870 5870 5870 5870 5869 5869 5868 5867 5867 5865 5864 5862 5861 5859 5857 5855 5853 5851 5850 5848 5846 5843 5841 5839 5837 5834 5832 5830 5828 5826 5824 5822
5851 5853 5854 5856 5857 5858 5859 5860 5861 5861 5862 5863 5863 5863 5863 5863 5863 5862 5862 5861 5860 5858 5857 5856 5854 5852 5851 5849 5847 5845 5843 5842 5839 5837 5834 5832 5829 5827 5825 5823 5821 5818 5816 5814
5845 5847 5848 5850 5852 5853 5853 5854 5855 5855 5857 5856 5856 5856 5856 5856 5856 5855 5854 5853 5852 5851 5850 5848 5847 5845 5843 5842 5840 5838 5836 5834 5832 5830 5827 5824 5821 5819 5817 5815 5813 5811 5809 5806
5839 5841 5842 5846 5846 5846 5847 5848 5848 5848 5848 5848 5849 5849 5849 5849 5848 5848 5847 5846 5844 5842 5841 5840 5838 5837 5836 5834 5832 5830 5829 5827 5825 5823 5820 5817 5814 5812 5809 5808 5806 5803 5800 5798
5832 5833 5834 5838 5839 5839 5840 5840 5841 5841 5841 5841 5841 5841 5841 5841 5841 5840 5839 5838 5836 5834 5833 5832 5830 5829 5828 5826 5824 5823 5821 5819 5817 5815 5813 5810 5807 5804 5802 5800 5797 5794 5791 5789
5825 5826 5827 5831 5832 5832 5834 5833 5834 5833 5833 5833 5833 5834 5834 5833 5833 5832 5831 5830 5828 5827 5825 5824 5822 5821 5820 5818 5816 5814 5812 5811 5809 5807 5804 5802 5799 5796 5793 5791 5789 5786 5783 5781
5817 5818 5820 5823 5823 5825 5826 5827 5826 5825 5825 5825 5825 5825 5825 5824 5824 5824 5823 5822 5820 5819 5817 5816 5814 5813 5811 5809 5808 5806 5804 5802 5800 5798 5796 5793 5790 5788 5785 5782 5780 5777 5775 5772
5810 5812 5815 5815 5816 5817 5818 5818 5818 5818 5818 5817 5817 5816 5816 5816 5815 5815 5814 5813 5812 5810 5809 5807 5805 5804 5802 5801 5799 5797 5796 5794 5791 5789 5786 5784 5781 5778 5776 5773 5770 5768 5766 5763
5803 5806 5806 5807 5808 5809 5809 5810 5810 5810 5810 5809 5809 5808 5808 5808 5807 5806 5805 5804 5803 5801 5800 5798 5797 5795 5794 5792 5790 5789 5787 5784 5782 5779 5777 5774 5771 5769 5766 5763 5761 5759 5756 5754
5795 5796 5798 5799 5800 5800 5801 5801 5802 5802 5802 5801 5801 5800 5800 5799 5798 5797 5797 5795 5794 5792 5790 5789 5787 5785 5784 5782 5781 5779 5777 5775 5772 5770 5767 5765 5762 5759 5757 5754 5752 5749 5747 5744
5787 5788 5789 5790 5791 5792 5792 5793 5793 5793 5793 5792 5792 5792 5791 5790 5789 5788 5787 5786 5784 5783 5781 5779 5778 5776 5775 5773 5771 5769 5767 5765 5762 5760 5757 5755 5752 5750 5747 5745 5742 5740 5737 5735
5778 5780 5781 5782 5782 5783 5783 5784 5784 5784 5784 5784 5783 5783 5782 5781 5780 5779 5778 5777 5775 5773 5772 5770 5769 5767 5765 5763 5761 5759 5757 5755 5752 5750 5747 5745 5743 5740 5737 5735 5732 5730 5727 5724
5769 5770 5772 5773 5773 5774 5774 5775 5775 5775 5775 5775 5774 5774 5773 5772 5771 5770 5769 5767 5766 5764 5763 5761 5759 5758 5756 5754 5752 5749 5747 5744 5742 5739 5737 5735 5732 5730 5728 5725 5722 5720 5717 5714
5760 5761 5762 5764 5764 5765 5765 5765 5766 5766 5766 5766 5766 5765 5764 5763 5762 5761 5759 5758 5757 5755 5753 5752 5750 5748 5746 5744 5741 5739 5736 5734 5732 5729 5727 5724 5722 5719 5717 5715 5712 5709 5706 5703
5750 5752 5753 5755 5755 5756 5756 5756 5757 5757 5757 5757 5757 5756 5755 5754 5753 5752 5750 5749 5747 5746 5744 5742 5740 5737 5735 5733 5731 5728 5726 5724 5721 5719 5716 5714 5711 5709 5706 5704 5701 5699 5696 5693
5741 5742 5744 5745 5746 5747 5747 5747 5747 5748 5748 5748 5748 5747 5746 5745 5744 5743 5741 5740 5738 5736 5734 5731 5729 5727 5724 5723 5720 5718 5716 5713 5710 5708 5705 5703 5700 5697 5695 5692 5690 5688 5686 5683
5731 5732 5734 5735 5736 5737 5738 5738 5738 5738 5739 5739 5738 5737 5736 5735 5734 5733 5732 5730 5728 5726 5724 5722 5720 5717 5715 5713 5710 5708 5705 5702 5700 5697 5694 5691 5689 5686 5684 5682 5680 5678 5675 5673
5721 5722 5724 5725 5726 5727 5728 5728 5729 5729 5729 5729 5728 5727 5727 5725 5724 5723 5722 5720 5718 5716 5714 5712 5709 5707 5704 5702 5700 5697 5694 5692 5689 5686 5683 5681 5678 5676 5674 5671 5669 5667 5665 5663
5711 5712 5714 5715 5716 5717 5718 5719 5719 5719 5719 5719 5719 5718 5717 5716 5715 5714 5712 5710 5709 5707 5705 5702 5699 5697 5694 5692 5689 5687 5684 5681 5679 5676 5673 5671 5668 5666 5663 5661 5659 5657 5654 5652
5701 5702 5704 5705 5706 5708 5709 5709 5710 5710 5710 5710 5709 5709 5708 5706 5705 5704 5702 5700 5699 5697 5695 5692 5690 5687 5685 5682 5680 5677 5675 5672 5669 5666 5663 5661 5658 5656 5653 5651 5649 5647 5645 5643
5692 5694 5695 5696 5697 5698 5699 5700 5700 5701 5701 5700 5700 5699 5698 5697 5696 5695 5693 5692 5690 5688 5686 5683 5681 5678 5675 5673 5670 5668 5665 5662 5659 5656 5654 5651 5649 5646 5644 5642 5640 5638 5636 5634
5684 5685 5686 5687 5688 5689 5690 5690 5691 5691 5691 5691 5691 5690 5689 5688 5687 5685 5684 5682 5681 5679 5676 5674 5671 5669 5667 5664 5661 5659 5656 5653 5650 5647 5645 5642 5639 5637 5635 5633 5631 5629 5627 5625
5677 5677 5678 5678 5679 5680 5680 5681 5682 5682 5682 5682 5682 5681 5680 5679 5677 5676 5675 5673 5671 5669 5667 5665 5663 5660 5658 5655 5652 5649 5647 5644 5641 5638 5636 5634 5631 5628 5626 5624 5621 5620 5618 5616
5670 5671 5671 5671 5671 5672 5673 5673 5673 5673 5673 5673 5673 5672 5671 5670 5668 5667 5666 5664 5662 5660 5658 5656 5654 5652 5649 5646 5643 5641 5638 5635 5633 5630 5628 5625 5622 5620 5617 5615 5612 5610 5609 5607
5665 5665 5664 5664 5665 5665 5665 5665 5665 5665 5665 5665 5664 5664 5662 5661 5660 5659 5657 5655 5653 5652 5650 5648 5645 5643 5640 5638 5635 5632 5630 5627 5625 5622 5620 5617 5614 5611 5609 5606 5605 5603 5601 5599
5660 5660 5659 5659 5659 5659 5658 5658 5657 5657 5657 5657 5657 5656 5655 5653 5652 5650 5648 5646 5644 5643 5641 5639 5637 5634 5632 5629 5626 5624 5622 5619 5617 5614 5612 5609 5607 5604 5602 5599 5597 5595 5594 5592
5656 5655 5655 5654 5653 5653 5652 5651 5651 5651 5650 5650 5649 5648 5647 5645 5644 5642 5640 5638 5636 5634 5632 5630 5628 5626 5623 5621 5619 5616 5614 5612 5610 5607 5605 5602 5600 5597 5595 5593 5591 5589 5587 5586